SCP
0 0 0 0 0 0 0 0 0 0 0 0 0 0 0 0 0 0 0 0 0 0 0 0 0 0 0 0 0 0 0 0 0 0 0 0 0 0 0 0 0 0 0 0
0 0 0 0 0 0 0 0 0 0 0 0 0 0 0 0 0 0 0 0 0 0 0 0 0 0 0 0 0 0 0 0 0 0 0 0 0 0 0 0 0 0 0 0
0 0 0 0 0 0 0 0 0 0 0 0 0 0 0 0 0 0 0 0 0 0 0 0 0 0 0 0 0 0 0 0 0 0 0 0 0 0 0 0 0 0 0 0
0 0 0 0 0 0 0 0 0 0 0 0 0 0 0 0 0 0 0 0 0 0 0 0 0 0 0 0 0 0 0 0 0 0 0 0 0 0 0 0 0 0 0 0
0 0 0 0 0 0 0 0 0 0 0 0 0 0 0 0 0 0 0 0 0 0 0 0 0 0 0 0 0 0 0 0 0 0 0 0 0 0 0 0 0 0 0 0
0 0 0 0 0 0 0 0 0 0 0 0 0 0 0 0 0 0 0 0 0 0 0 0 0 0 0 0 0 0 0 0 0 0 0 0 0 0 0 0 0 0 0 0
0 0 0 0 0 0 0 0 0 0 0 0 0 0 0 0 0 0 0 0 0 0 0 0 0 0 0 0 0 0 0 0 0 0 0 0 0 0 0 0 0 0 0 0
0 0 0 0 0 0 0 0 0 0 0 0 0 0 0 0 0 0 0 0 0 0 0 0 0 0 0 0 0 0 0 0 0 0 0 0 0 0 0 0 0 0 0 0
0 0 0 0 0 0 0 0 0 0 0 0 0 0 0 0 0 0 0 0 0 0 0 0 0 0 0 0 0 0 0 0 0 0 0 0 0 0 0 0 0 0 0 0
0 0 0 0 0 0 0 0 0 0 0 0 0 0 0 0 0 0 0 0 0 0 0 0 0 0 0 0 0 0 0 0 0 0 0 0 0 0 0 0 0 0 0 0
0 0 0 0 0 0 0 0 0 0 0 0 0 0 0 0 0 0 0 0 0 0 0 0 0 0 0 0 0 0 0 0 0 0 0 0 0 0 0 0 0 0 0 0
0 0 0 0 0 0 0 0 0 0 0 0 0 0 0 0 0 0 0 0 0 0 0 0 -0 -0 -0 -0 0 0 0 0 0 0 0 0 0 0 0 0 0 0 0 0
0 0 0 0 0 0 0 0 0 0 0 0 0 0 0 -0 0 0 0 0 0 0 0 -0 -0 -0 -0 -0 0 0 0 0 0 0 0 0 0 0 0 0 0 0 0 0
0 0 0 0 0 0 0 0 0 0 0 0 0 0 0 0 0 0 0 0 0 0 -0 -0 -0 -0 -0 -0 -0 0 0 0 0 0 0 0 0 0 0 0 0 0 0 0
0 0 0 0 0 0 0 0 0 0 0 0 0 0 0 0 0 -0 -0 -0 -0 -0 -0 -0 -0 -0 -0 -0 -0 -0 -0 0 0 0 0 0 0 0 0 0 0 0 0 0
0 0 0 0 0 0 0 0 0 0 0 0 0 0 0 0 0 0 0 -0 -0 -0 -0 -0 -0 0 0 0 -0 0 -0 -0 0 0 0 0 0 0 0 0 0 0 0 0
0 0 0 0 0 0 0 0 0 0 0 0 0 0 0 0 0 0 0 0 -0 -0 -0 -0 -0 -0 -0 0 0 -0 0 -0 0 0 0 0 0 0 0 0 0 0 0 0
0 0 0 0 0 0 0 0 0 0 0 0 0 0 0 0 0 0 0 0 0 0 0 0 -0 -0 0 0 -0 0 0 0 -0 -0 0 0 0 0 0 0 0 0 0 0
0 0 0 0 0 0 0 0 0 0 0 0 0 0 0 0 0 0 0 0 0 0 0 0 -0 -0 -0 -0 -0 -0 -0 -0 -0 -0 -0 0 0 0 0 0 0 0 0 0
0 0 0 0 0 0 0 0 0 0 0 0 0 0 0 0 0 0 0 0 0 0 0 0 0 0 0 0 -0 -0 -0 -0 -0 -0 0 0 0 0 0 0 0 0 0 0
0 0 0 0 0 0 0 0 0 0 0 0 0 0 0 0 0 0 0 0 0 0 0 0 -0 -0 -0 0 -0 -0 -0 -0 -0 -0 0 0 0 0 0 0 0 0 0 0
0 0 0 0 0 0 0 0 0 0 0 0 0 0 0 0 0 0 0 0 0 0 0 0 -0 0 0 -0 -0 -0 -0 0 -0 0 0 0 0 0 0 0 0 0 0 0
0 0 0 0 0 0 0 0 0 0 0 0 0 0 0 0 0 0 0 0 0 0 0 0 0 0 0 0 -0 -0 0 0 0 0 -0 -0 -0 -0 0 0 0 0 0 0
0 0 0 0 0 0 0 0 0 0 0 0 0 0 0 0 0 0 0 0 0 0 0 0 0 -0 0 0 0 0 0 0 -0 -0 -0 -0 0 -0 0 0 0 0 0 0
0 0 0 0 0 0 0 0 0 0 0 0 0 0 0 0 0 0 0 0 0 0 0 0 0 0 0 0 0 0 0 -0 -0 -0 -0 -0 -0 0 0 0 0 0 0 0
0 0 0 0 0 0 0 0 0 0 0 0 0 0 0 0 0 0 0 0 0 0 0 0 0 0 0 0 0 0 0 0 0 -0 -0 -0 -0 0 0 0 0 0 0 0
Wind_Speed_500mb
38 16 42 52 28 27 17 17 17 11 25 21 17 31 29 46 47 51 59 62 64 61 54 48 38 61 62 58 57 64 71 70 69 73 73 72 72 68 67 64 60 58 54 51
15 48 35 19 22 23 24 25 30 9 16 13 17 25 19 28 33 56 56 54 60 62 62 62 65 52 67 69 67 65 69 74 76 77 78 77 73 71 69 67 66 63 61 58
29 29 28 30 31 34 35 38 28 12 11 8 4 20 13 11 31 45 51 50 59 70 72 61 59 63 58 72 75 70 69 76 79 79 81 80 79 78 77 79 74 74 68 66
25 44 36 26 35 33 38 23 15 11 7 11 4 18 17 7 20 32 48 58 72 79 76 75 77 72 62 63 76 76 70 69 79 82 84 84 89 89 87 84 80 78 75 73
33 25 31 36 49 30 23 15 13 12 10 2 24 10 12 13 21 33 35 54 60 65 64 62 64 77 84 80 69 76 81 78 71 84 85 88 90 93 93 89 87 82 78 78
42 26 31 31 25 29 8 7 10 8 7 21 36 17 26 23 36 33 39 56 59 55 66 68 64 67 71 72 86 80 75 85 83 86 89 94 92 92 97 97 94 89 83 80
36 30 11 31 15 24 15 15 9 10 15 24 17 12 38 25 37 23 30 52 50 55 49 30 33 42 60 71 73 84 85 86 87 95 91 96 92 95 100 100 96 93 91 88
29 29 47 28 34 17 29 31 13 15 10 11 8 19 27 34 66 61 71 82 76 66 59 43 39 43 45 37 57 66 73 86 90 95 98 100 95 103 106 95 96 98 101 97
26 24 17 20 12 37 17 23 27 10 5 6 7 11 17 17 32 35 33 19 8 15 14 18 20 26 23 27 36 42 48 63 75 87 96 103 104 98 107 108 101 103 107 106
13 11 12 43 16 22 18 17 12 10 12 17 8 7 15 9 14 12 12 27 22 28 30 28 32 24 33 23 23 26 44 53 64 74 87 97 100 107 95 106 111 116 112 106
13 9 11 24 28 46 11 17 7 8 10 9 2 10 18 30 5 16 17 13 18 25 17 19 33 33 28 26 26 26 23 25 50 64 72 81 96 99 99 107 105 105 107 105
32 5 8 46 29 29 39 32 27 12 11 8 2 10 5 16 15 23 10 23 28 34 30 33 37 40 36 37 41 40 31 30 28 43 61 76 85 88 87 104 102 94 102 105
38 8 8 8 7 4 29 20 30 13 7 17 16 21 10 7 2 10 22 19 27 29 35 42 40 44 51 49 48 50 45 40 39 34 45 69 74 79 86 91 92 93 97 99
48 11 16 22 26 17 21 32 27 30 18 23 20 30 8 18 17 23 22 25 29 35 42 58 61 60 55 50 51 60 60 53 48 44 39 44 61 76 86 91 89 90 89 88
30 24 24 9 12 14 19 36 41 40 51 27 43 37 43 29 29 10 10 26 37 42 43 46 56 65 65 64 64 66 61 60 60 56 48 44 42 46 57 82 86 81 82 85
18 17 10 4 8 10 7 18 22 39 36 34 33 28 33 12 10 18 18 22 28 30 34 41 46 56 65 64 67 65 74 67 57 60 64 57 51 49 50 61 76 79 81 79
22 11 17 21 18 12 10 22 16 10 11 26 24 39 7 4 7 8 14 21 26 31 37 45 46 54 57 66 69 73 75 79 76 69 57 58 56 57 54 56 63 71 76 84
31 20 7 8 10 16 16 25 32 25 14 10 8 16 17 16 12 19 24 25 30 33 42 51 57 59 58 63 71 73 68 70 73 74 66 50 55 58 56 55 65 69 72 73
22 14 6 9 10 6 9 8 14 14 16 17 27 5 19 23 20 22 27 26 28 33 41 49 53 57 59 62 66 74 79 70 69 68 65 56 45 56 66 59 64 69 73 71
10 12 10 6 11 15 11 5 6 10 3 12 1 11 14 11 6 3 27 28 32 41 47 55 57 62 63 62 65 69 75 85 74 66 67 63 60 55 61 65 65 70 72 73
13 7 13 7 4 11 10 8 9 14 3 27 40 32 29 9 10 9 20 24 38 47 53 55 57 59 64 65 65 66 69 77 84 80 65 65 66 63 61 60 65 69 68 64
11 11 7 7 7 8 33 7 9 11 25 34 35 31 23 13 10 17 25 33 41 48 55 57 62 62 58 65 67 69 66 71 76 86 78 64 67 65 61 58 57 66 67 60
3 9 10 3 6 16 43 51 32 33 29 25 26 25 20 19 25 31 35 38 44 49 54 57 63 67 58 62 70 74 71 70 73 75 87 69 61 64 54 51 56 62 62 70
9 26 8 10 14 25 30 33 39 35 33 28 27 24 24 26 29 35 40 47 54 59 61 62 67 70 68 66 65 71 72 72 73 75 78 81 64 55 54 46 55 60 67 78
11 24 9 14 16 12 32 34 33 30 29 28 27 28 30 30 30 37 46 52 59 62 64 62 64 69 73 72 69 64 71 74 74 73 72 77 65 56 49 44 53 63 71 78
22 13 7 5 12 10 13 22 29 33 35 34 36 38 31 30 39 47 50 53 58 62 64 66 66 67 69 72 71 65 68 70 75 76 71 69 70 55 50 46 47 60 68 74
Wind_Direction_500mb
186 178 206 206 198 203 186 228 227 220 231 247 237 254 249 249 238 239 259 269 276 279 273 275 267 257 250 241 235 239 240 238 232 229 227 227 230 233 236 237 238 239 240 239
173 216 212 146 187 197 215 236 251 270 269 212 253 266 245 244 240 242 243 253 267 275 274 270 269 264 251 247 240 239 243 244 239 235 234 234 236 239 242 243 240 240 241 241
194 226 184 184 193 200 219 218 231 224 323 275 266 274 261 262 260 263 267 273 268 270 272 272 265 265 258 247 239 239 247 247 245 241 237 235 236 240 239 240 242 242 242 242
219 229 184 196 206 197 213 210 215 193 126 242 71 275 247 252 272 270 270 263 263 265 267 266 263 262 263 252 246 243 244 249 251 246 241 238 239 239 244 245 246 246 246 245
210 169 193 198 210 191 229 193 200 188 202 84 251 260 279 198 253 257 263 265 261 266 269 272 274 266 259 255 248 246 244 246 251 248 248 245 241 245 247 248 249 249 249 249
216 196 184 208 213 195 143 106 194 226 173 237 238 215 264 248 256 261 264 262 262 265 269 271 280 273 262 256 256 251 245 245 248 252 249 246 246 246 245 246 249 251 249 249
216 229 210 192 175 191 168 139 217 226 218 242 207 181 242 260 253 247 256 259 265 268 274 269 279 288 266 254 253 254 252 246 246 249 252 248 249 250 248 249 252 253 253 252
190 207 223 199 202 174 192 190 195 204 185 230 174 207 244 232 257 252 255 265 270 274 281 285 290 292 285 277 255 252 256 254 250 250 250 251 252 252 251 253 256 257 258 257
192 225 199 197 161 179 194 202 201 89 29 63 220 287 305 252 261 250 241 275 97 58 1 343 317 312 319 288 272 265 265 267 259 255 253 249 251 252 252 248 251 256 258 258
193 219 213 197 169 222 197 150 186 199 208 235 232 234 242 329 306 319 126 115 73 47 58 48 45 23 348 3 352 277 260 259 264 262 260 258 255 253 257 254 251 253 257 258
187 139 203 153 200 197 152 198 170 159 162 194 267 250 220 226 217 120 125 99 50 27 31 15 357 356 0 358 351 351 346 302 265 263 263 263 256 255 256 255 255 258 260 260
204 159 168 197 189 194 208 204 189 186 185 199 131 268 275 147 144 102 70 27 37 16 352 345 342 345 343 334 329 333 321 327 326 277 261 258 258 256 260 258 259 260 260 259
184 190 142 57 21 328 200 200 199 194 111 197 192 237 277 213 174 42 12 24 16 16 357 357 356 347 342 334 324 329 330 324 332 309 267 253 252 253 256 258 261 260 260 259
176 158 195 191 209 147 195 206 199 200 220 212 215 245 266 294 290 328 348 17 29 15 349 336 338 335 329 327 325 320 321 322 321 318 303 266 254 255 255 258 259 260 262 263
189 192 193 164 102 144 197 203 210 210 222 212 238 242 261 253 277 301 38 35 24 22 15 1 349 338 330 326 313 306 307 311 312 305 300 295 278 267 263 254 255 256 259 263
176 195 131 215 145 136 184 215 214 224 226 224 235 247 243 61 334 13 48 41 39 28 15 4 360 358 3 346 328 316 309 307 304 304 301 303 294 285 273 261 254 253 252 255
171 130 174 207 131 93 308 208 184 191 202 211 223 237 285 123 192 92 89 50 26 6 352 344 341 347 347 354 350 337 321 311 308 304 305 306 301 293 287 276 262 257 253 251
170 163 145 160 123 208 261 167 198 205 208 211 269 251 136 184 159 119 65 40 17 4 346 337 331 329 335 338 342 345 340 327 315 307 303 301 297 291 285 281 270 259 253 251
165 136 142 173 176 292 340 137 146 168 241 231 236 177 168 164 152 104 31 22 15 350 340 337 334 329 329 329 328 336 344 341 332 319 304 296 288 283 286 275 271 267 255 249
169 148 124 133 148 198 242 185 156 121 184 328 174 116 116 119 119 289 352 349 338 332 329 324 323 327 328 330 324 324 335 340 340 330 316 298 294 283 279 284 273 264 255 248
160 185 157 157 124 285 255 282 164 138 173 53 70 58 67 76 48 335 318 308 319 322 324 324 321 320 323 329 327 325 325 334 339 333 328 308 290 289 286 280 273 267 260 248
145 142 155 122 117 233 351 341 119 102 65 72 62 51 48 37 344 326 322 320 318 321 322 323 322 321 324 328 328 326 328 325 331 335 332 322 299 284 287 284 273 264 255 245
81 154 151 92 138 64 46 80 61 83 80 54 48 32 20 3 346 334 326 325 325 326 326 325 324 321 325 326 329 327 330 327 326 333 332 330 310 293 288 290 275 259 251 237
53 22 104 140 48 66 59 65 57 52 52 40 28 12 359 348 338 327 325 326 326 326 327 325 322 321 320 322 325 328 328 327 326 329 331 332 321 303 293 290 279 260 246 235
354 327 21 82 98 112 54 41 32 27 23 16 12 3 351 343 335 329 327 326 324 323 325 324 321 317 318 320 322 326 329 326 325 324 329 329 323 309 301 290 279 261 250 243
3 7 12 89 34 337 53 13 8 9 4 359 353 347 349 342 332 328 324 324 322 322 324 324 323 320 318 320 320 325 328 327 323 320 321 326 321 310 304 298 287 268 254 247
Wind_Speed_850mb
38 16 42 52 28 27 17 17 17 11 25 21 17 31 29 46 47 51 59 62 64 61 54 48 38 61 62 58 57 64 71 70 69 73 73 72 72 68 67 64 60 58 54 51
15 48 35 19 22 23 24 25 30 9 16 13 17 25 19 28 33 56 56 54 60 62 62 62 65 52 67 69 67 65 69 74 76 77 78 77 73 71 69 67 66 63 61 58
29 29 28 30 31 34 35 38 28 12 11 8 4 20 13 11 31 45 51 50 59 70 72 61 59 63 58 72 75 70 69 76 79 79 81 80 79 78 77 79 74 74 68 66
25 44 36 26 35 33 38 23 15 11 7 11 4 18 17 7 20 32 48 58 72 79 76 75 77 72 62 63 76 76 70 69 79 82 84 84 89 89 87 84 80 78 75 73
33 25 31 36 49 30 23 15 13 12 10 2 24 10 12 13 21 33 35 54 60 65 64 62 64 77 84 80 69 76 81 78 71 84 85 88 90 93 93 89 87 82 78 78
42 26 31 31 25 29 8 7 10 8 7 21 36 17 26 23 36 33 39 56 59 55 66 68 64 67 71 72 86 80 75 85 83 86 89 94 92 92 97 97 94 89 83 80
36 30 11 31 15 24 15 15 9 10 15 24 17 12 38 25 37 23 30 52 50 55 49 30 33 42 60 71 73 84 85 86 87 95 91 96 92 95 100 100 96 93 91 88
29 29 47 28 34 17 29 31 13 15 10 11 8 19 27 34 66 61 71 82 76 66 59 43 39 43 45 37 57 66 73 86 90 95 98 100 95 103 106 95 96 98 101 97
26 24 17 20 12 37 17 23 27 10 5 6 7 11 17 17 32 35 33 19 8 15 14 18 20 26 23 27 36 42 48 63 75 87 96 103 104 98 107 108 101 103 107 106
13 11 12 43 16 22 18 17 12 10 12 17 8 7 15 9 14 12 12 27 22 28 30 28 32 24 33 23 23 26 44 53 64 74 87 97 100 107 95 106 111 116 112 106
13 9 11 24 28 46 11 17 7 8 10 9 2 10 18 30 5 16 17 13 18 25 17 19 33 33 28 26 26 26 23 25 50 64 72 81 96 99 99 107 105 105 107 105
32 5 8 46 29 29 39 32 27 12 11 8 2 10 5 16 15 23 10 23 28 34 30 33 37 40 36 37 41 40 31 30 28 43 61 76 85 88 87 104 102 94 102 105
38 8 8 8 7 4 29 20 30 13 7 17 16 21 10 7 2 10 22 19 27 29 35 42 40 44 51 49 48 50 45 40 39 34 45 69 74 79 86 91 92 93 97 99
48 11 16 22 26 17 21 32 27 30 18 23 20 30 8 18 17 23 22 25 29 35 42 58 61 60 55 50 51 60 60 53 48 44 39 44 61 76 86 91 89 90 89 88
30 24 24 9 12 14 19 36 41 40 51 27 43 37 43 29 29 10 10 26 37 42 43 46 56 65 65 64 64 66 61 60 60 56 48 44 42 46 57 82 86 81 82 85
18 17 10 4 8 10 7 18 22 39 36 34 33 28 33 12 10 18 18 22 28 30 34 41 46 56 65 64 67 65 74 67 57 60 64 57 51 49 50 61 76 79 81 79
22 11 17 21 18 12 10 22 16 10 11 26 24 39 7 4 7 8 14 21 26 31 37 45 46 54 57 66 69 73 75 79 76 69 57 58 56 57 54 56 63 71 76 84
31 20 7 8 10 16 16 25 32 25 14 10 8 16 17 16 12 19 24 25 30 33 42 51 57 59 58 63 71 73 68 70 73 74 66 50 55 58 56 55 65 69 72 73
22 14 6 9 10 6 9 8 14 14 16 17 27 5 19 23 20 22 27 26 28 33 41 49 53 57 59 62 66 74 79 70 69 68 65 56 45 56 66 59 64 69 73 71
10 12 10 6 11 15 11 5 6 10 3 12 1 11 14 11 6 3 27 28 32 41 47 55 57 62 63 62 65 69 75 85 74 66 67 63 60 55 61 65 65 70 72 73
13 7 13 7 4 11 10 8 9 14 3 27 40 32 29 9 10 9 20 24 38 47 53 55 57 59 64 65 65 66 69 77 84 80 65 65 66 63 61 60 65 69 68 64
11 11 7 7 7 8 33 7 9 11 25 34 35 31 23 13 10 17 25 33 41 48 55 57 62 62 58 65 67 69 66 71 76 86 78 64 67 65 61 58 57 66 67 60
3 9 10 3 6 16 43 51 32 33 29 25 26 25 20 19 25 31 35 38 44 49 54 57 63 67 58 62 70 74 71 70 73 75 87 69 61 64 54 51 56 62 62 70
9 26 8 10 14 25 30 33 39 35 33 28 27 24 24 26 29 35 40 47 54 59 61 62 67 70 68 66 65 71 72 72 73 75 78 81 64 55 54 46 55 60 67 78
11 24 9 14 16 12 32 34 33 30 29 28 27 28 30 30 30 37 46 52 59 62 64 62 64 69 73 72 69 64 71 74 74 73 72 77 65 56 49 44 53 63 71 78
22 13 7 5 12 10 13 22 29 33 35 34 36 38 31 30 39 47 50 53 58 62 64 66 66 67 69 72 71 65 68 70 75 76 71 69 70 55 50 46 47 60 68 74
Wind_Direction_850mb
186 178 206 206 198 203 186 228 227 220 231 247 237 254 249 249 238 239 259 269 276 279 273 275 267 257 250 241 235 239 240 238 232 229 227 227 230 233 236 237 238 239 240 239
173 216 212 146 187 197 215 236 251 270 269 212 253 266 245 244 240 242 243 253 267 275 274 270 269 264 251 247 240 239 243 244 239 235 234 234 236 239 242 243 240 240 241 241
194 226 184 184 193 200 219 218 231 224 323 275 266 274 261 262 260 263 267 273 268 270 272 272 265 265 258 247 239 239 247 247 245 241 237 235 236 240 239 240 242 242 242 242
219 229 184 196 206 197 213 210 215 193 126 242 71 275 247 252 272 270 270 263 263 265 267 266 263 262 263 252 246 243 244 249 251 246 241 238 239 239 244 245 246 246 246 245
210 169 193 198 210 191 229 193 200 188 202 84 251 260 279 198 253 257 263 265 261 266 269 272 274 266 259 255 248 246 244 246 251 248 248 245 241 245 247 248 249 249 249 249
216 196 184 208 213 195 143 106 194 226 173 237 238 215 264 248 256 261 264 262 262 265 269 271 280 273 262 256 256 251 245 245 248 252 249 246 246 246 245 246 249 251 249 249
216 229 210 192 175 191 168 139 217 226 218 242 207 181 242 260 253 247 256 259 265 268 274 269 279 288 266 254 253 254 252 246 246 249 252 248 249 250 248 249 252 253 253 252
190 207 223 199 202 174 192 190 195 204 185 230 174 207 244 232 257 252 255 265 270 274 281 285 290 292 285 277 255 252 256 254 250 250 250 251 252 252 251 253 256 257 258 257
192 225 199 197 161 179 194 202 201 89 29 63 220 287 305 252 261 250 241 275 97 58 1 343 317 312 319 288 272 265 265 267 259 255 253 249 251 252 252 248 251 256 258 258
193 219 213 197 169 222 197 150 186 199 208 235 232 234 242 329 306 319 126 115 73 47 58 48 45 23 348 3 352 277 260 259 264 262 260 258 255 253 257 254 251 253 257 258
187 139 203 153 200 197 152 198 170 159 162 194 267 250 220 226 217 120 125 99 50 27 31 15 357 356 0 358 351 351 346 302 265 263 263 263 256 255 256 255 255 258 260 260
204 159 168 197 189 194 208 204 189 186 185 199 131 268 275 147 144 102 70 27 37 16 352 345 342 345 343 334 329 333 321 327 326 277 261 258 258 256 260 258 259 260 260 259
184 190 142 57 21 328 200 200 199 194 111 197 192 237 277 213 174 42 12 24 16 16 357 357 356 347 342 334 324 329 330 324 332 309 267 253 252 253 256 258 261 260 260 259
176 158 195 191 209 147 195 206 199 200 220 212 215 245 266 294 290 328 348 17 29 15 349 336 338 335 329 327 325 320 321 322 321 318 303 266 254 255 255 258 259 260 262 263
189 192 193 164 102 144 197 203 210 210 222 212 238 242 261 253 277 301 38 35 24 22 15 1 349 338 330 326 313 306 307 311 312 305 300 295 278 267 263 254 255 256 259 263
176 195 131 215 145 136 184 215 214 224 226 224 235 247 243 61 334 13 48 41 39 28 15 4 360 358 3 346 328 316 309 307 304 304 301 303 294 285 273 261 254 253 252 255
171 130 174 207 131 93 308 208 184 191 202 211 223 237 285 123 192 92 89 50 26 6 352 344 341 347 347 354 350 337 321 311 308 304 305 306 301 293 287 276 262 257 253 251
170 163 145 160 123 208 261 167 198 205 208 211 269 251 136 184 159 119 65 40 17 4 346 337 331 329 335 338 342 345 340 327 315 307 303 301 297 291 285 281 270 259 253 251
165 136 142 173 176 292 340 137 146 168 241 231 236 177 168 164 152 104 31 22 15 350 340 337 334 329 329 329 328 336 344 341 332 319 304 296 288 283 286 275 271 267 255 249
169 148 124 133 148 198 242 185 156 121 184 328 174 116 116 119 119 289 352 349 338 332 329 324 323 327 328 330 324 324 335 340 340 330 316 298 294 283 279 284 273 264 255 248
160 185 157 157 124 285 255 282 164 138 173 53 70 58 67 76 48 335 318 308 319 322 324 324 321 320 323 329 327 325 325 334 339 333 328 308 290 289 286 280 273 267 260 248
145 142 155 122 117 233 351 341 119 102 65 72 62 51 48 37 344 326 322 320 318 321 322 323 322 321 324 328 328 326 328 325 331 335 332 322 299 284 287 284 273 264 255 245
81 154 151 92 138 64 46 80 61 83 80 54 48 32 20 3 346 334 326 325 325 326 326 325 324 321 325 326 329 327 330 327 326 333 332 330 310 293 288 290 275 259 251 237
53 22 104 140 48 66 59 65 57 52 52 40 28 12 359 348 338 327 325 326 326 326 327 325 322 321 320 322 325 328 328 327 326 329 331 332 321 303 293 290 279 260 246 235
354 327 21 82 98 112 54 41 32 27 23 16 12 3 351 343 335 329 327 326 324 323 325 324 321 317 318 320 322 326 329 326 325 324 329 329 323 309 301 290 279 261 250 243
3 7 12 89 34 337 53 13 8 9 4 359 353 347 349 342 332 328 324 324 322 322 324 324 323 320 318 320 320 325 328 327 323 320 321 326 321 310 304 298 287 268 254 247